Weather Roundup
Issued by NWS Chicago, IL

Home | Current Version | Previous Version | Graphics & Text | Print | Product List | Glossary On
Versions: 1 2 3 4 5 6 7 8 9 10 11 12 13 14 15 16 17 18 19 20 21 22 23 24 25 26 27 28 29 30 31 32 33 34 35 36 37 38 39 40 41 42 43 44 45 46 47 48 49 50
000
NZUS59 KLOT 291303
HRRLOT

CHICAGO AREA WEATHER ROUNDUP
NATIONAL WEATHER SERVICE CHICAGO/ROMEOVILLE IL
800 AM CDT SUN MAY 29 2016

NOTE: "FAIR" INDICATES FEW OR NO CLOUDS BELOW 12,000 FEET WITH NO
SIGNIFICANT WEATHER AND/OR OBSTRUCTIONS TO VISIBILITY.

* THESE STATIONS ARE NOT UNDER NWS QUALITY CONTROL. THEY ALSO MAY NOT
  REPORT WEATHER SUCH AS PRECIPITATION OR FOG.

ILZ005-006-012>014-019>023-291400-
NORTHEAST ILLINOIS

CITY           SKY/WX    TMP DP  RH WIND       PRES   REMARKS
OHARE          MOSUNNY   70  62  76 SW13      29.98S
MIDWAY         MOSUNNY   72  61  68 SW12      29.99S
AURORA         SUNNY     70  63  78 S13       30.00R
LANSING*       SUNNY     71  63  75 SW10      30.01S
WAUKEGAN       MOSUNNY   70  63  78 SW15      29.96S
DUPAGE AIRPORT SUNNY     70  61  73 SW14      29.99R
WHEELING       SUNNY     70  62  76 SW9       29.98F
MORRIS*        SUNNY     71  64  77 SW12      30.00R
$$

WIZ051-052-058>065-066-070>072-291400-
SOUTHEAST WISCONSIN

CITY           SKY/WX    TMP DP  RH WIND       PRES   REMARKS
MILWAUKEE      MOSUNNY   69  62  78 SW12      29.94S
KENOSHA*       MOSUNNY   70  61  73 SW12      29.96S
RACINE*        MOSUNNY   70  62  76 SW12      29.96S
BURLINGTON     SUNNY     67  63  86 SW12      29.95S
WAUKESHA       SUNNY     64  61  88 SW14      29.95R
$$

INZ001>003-010>013-019-020-291400-
NORTHWEST INDIANA

CITY           SKY/WX    TMP DP  RH WIND       PRES   REMARKS
GARY*          MOSUNNY   73  68  83 SW14      30.01F
MICHIGAN CITY* NOT AVBL
RENSSELAER*    NOT AVBL
VALPARAISO     SUNNY     70  62  76 SW10      30.03S
$$

LMZ740>746-291400-
SOUTHERN LAKE MICHIGAN

STATION/POSITION TIME  SKY/WX   TEMP WIND        PRES    VSBY
                                AIR  DIR/SP/G
                 (UTC)          (F)  (DEG/KT/KT) (MB)    (MI)
HARRISON CRIB    1200            68  210/ 16/ 17   N/A
BURNHAM HARBOR   1300            72  200/  9/  9   N/A
CALUMET HARBOR   1200            68  210/  7/ 12 1015.2R
BURNS HARBOR     1201            67  210/ 12/ 16 1016.6R
MICHIGAN CITY    1200            68  180/ 11/ 15   N/A
$$

ABBREVIATIONS USED IN REMARKS
   TC - TEMPERATURE IN CELSIUS
  WCI - WIND CHILL INDEX
   HX - HEAT INDEX
  VSB - VISIBILITY
$$



USA.gov is the U.S. government's official web portal to all federal, state and local government web resources and services.